THOR ABLESTAR DEB, 1435

Orbit data source: Space-Track

THOR ABLESTAR DEB, 1435 is space debris in LEO originally from a launch on Thu, 24 Jun 1965 UTC launched from the Air Force Western Test Range (AFWTR). Debris objects in space refer to the collection of defunct objects orbiting the Earth. Examples of debris include non-operational satellites, rocket bodies, and fragments generated from explosions, collisions, or faulty payload assembly.

Loading next visibility...
Identifier
1435, 1965-048D
Orbit
LEO
Country
Flag of USUS
Related business
Manufacturer
Unknown
Mission
Spacecraft
Bus & Motor
Unknown
Mass
Unknown
Launch date (UTC)
1965-06-24 (61 years ago)
Launch vehicle
Unknown
Launch site
Air Force Western Test Range (AFWTR)
Object type
Payload
Rocket body
Debris
Shape & HBR
Unknown shape, 0.1 m
Radar Cross Section
Medium (>0.1 m² and <1 m²)

Expand to show TLE details & history
Last TLE update: 2 days ago

TLE from 2 days ago
0 THOR ABLESTAR DEB
1 01435U 65048D   26252.07651634  .00000470  00000-0  48764-3 0  9998
2 01435  89.8755 288.9444 0058732  64.6730 324.0957 13.73443084 38409
Epoch: 2026-09-09T01:50Z
TLE epoch observation values (Epoch: 2026-09-09T01:50:11.011Z)
Latitude
28.41347°
Longitude
-86.66824°
Altitude
955.866 km
Speed
7.394 km/s
True Right ascension
19h 16m 02s
True Declination
28° 16' 25"
Sunlit
Object was in daylight at epoch
Visualization orbit readout
Latitude
Unknown
Longitude
Unknown
Altitude
Unknown
Speed
Unknown
Apparent Right ascension
Unknown
Apparent Declination
Unknown
Sunlit
N/A
Visualization observer readout
Local Sidereal Time
15:33:34
Azimuth
Unknown
Elevation
Unknown
Doppler factor
Unknown
Orbital elements
Apogee altitude
1,027.492 km
Perigee altitude
941.011 km
Semi-major axis
7,362.388 km
Eccentricity
0.00587
Inclination
89.8755°
RAAN
288.9444°
Arg. of periapsis
64.673°
True anomaly
323.69866°
Mean anomaly
324.0957°
Eccentric anomaly
323.89742°
Mean motion
3.4357 °/min
Orbital period
104.78 mins
BSTAR
0.00048764
Loading maneuver chart data...
Computing Atmospheric mass density...

Documentation

Showing up to 5 results
|